• In Deutschland
  • Länderverzeichnis
  • Für 7 Tage
  • Wassertemperatur
  • Satellitenkarten
  • Wetterkarte
  • Widgets
  • user-avatar
    Anmelden

    Stündliche Wetter Bad Säckingen

    Heute, 18 Dezember, Montag

    Zeit Temperatur Niederschläge Wind Luftdruck Luftfeuchtigkeit
    00:00 -3°C° 0 mm 2 m/S 741 mmHg 88%
    01:00 -2°C° 0 mm 2 m/S 740 mmHg 86%
    02:00 -2°C° 0 mm 2 m/S 740 mmHg 84%
    03:00 -1°C° 0 mm 2 m/S 739 mmHg 82%
    04:00 -1°C° 0 mm 2 m/S 739 mmHg 80%
    05:00 -1°C° 0,6 mm 3 m/S 738 mmHg 83%
    06:00 -1°C° 0,6 mm 3 m/S 737 mmHg 86%
    07:00 -1°C° 0,6 mm 3 m/S 737 mmHg 89%
    08:00 -1°C° 0,7 mm 3 m/S 736 mmHg 90%
    09:00 +1°C° 0,7 mm 2 m/S 736 mmHg 90%
    10:00 +1°C° 0,7 mm 2 m/S 736 mmHg 90%
    11:00 +2°C° 0,3 mm 2 m/S 735 mmHg 90%
    12:00 +3°C° 0,3 mm 1 m/S 735 mmHg 90%
    13:00 +4°C° 0,3 mm 1 m/S 735 mmHg 89%
    14:00 +4°C° 0,1 mm 1 m/S 736 mmHg 91%
    15:00 +3°C° 0,1 mm 0 m/S 736 mmHg 92%
    16:00 +3°C° 0,1 mm 0 m/S 736 mmHg 94%
    17:00 +2°C° 0 mm 0 m/S 737 mmHg 94%
    18:00 +1°C° 0 mm 0 m/S 737 mmHg 94%
    19:00 +1°C° 0 mm 0 m/S 738 mmHg 94%
    20:00 +1°C° 0 mm 0 m/S 738 mmHg 94%
    21:00 0°C° 0 mm 0 m/S 739 mmHg 94%
    22:00 0°C° 0 mm 0 m/S 739 mmHg 94%
    23:00 0°C° 0 mm 0 m/S 740 mmHg 93%

    Morgen, 19 Dezember, Dienstag

    Zeit Temperatur Niederschläge Wind Luftdruck Luftfeuchtigkeit
    00:00 0°C° 0 mm 0 m/S 740 mmHg 93%
    01:00 0°C° 0 mm 0 m/S 741 mmHg 93%
    02:00 0°C° 0 mm 0 m/S 741 mmHg 93%
    03:00 0°C° 0 mm 0 m/S 741 mmHg 93%
    04:00 0°C° 0 mm 0 m/S 742 mmHg 93%
    05:00 0°C° 0 mm 0 m/S 742 mmHg 93%
    06:00 0°C° 0 mm 0 m/S 742 mmHg 93%
    07:00 0°C° 0 mm 0 m/S 743 mmHg 92%
    08:00 +1°C° 0 mm 0 m/S 743 mmHg 91%
    09:00 +1°C° 0 mm 0 m/S 744 mmHg 91%
    10:00 +2°C° 0 mm 0 m/S 744 mmHg 90%
    11:00 +2°C° 0 mm 0 m/S 744 mmHg 88%
    12:00 +4°C° 0 mm 1 m/S 744 mmHg 87%
    13:00 +4°C° 0 mm 1 m/S 744 mmHg 86%
    14:00 +4°C° 0 mm 1 m/S 744 mmHg 88%
    15:00 +3°C° 0 mm 1 m/S 744 mmHg 90%
    16:00 +3°C° 0 mm 1 m/S 744 mmHg 92%
    17:00 +1°C° 0 mm 0 m/S 745 mmHg 93%
    18:00 +1°C° 0 mm 0 m/S 745 mmHg 93%
    19:00 0°C° 0 mm 0 m/S 746 mmHg 93%
    20:00 0°C° 0 mm 0 m/S 746 mmHg 93%
    21:00 0°C° 0 mm 0 m/S 746 mmHg 93%
    22:00 0°C° 0 mm 0 m/S 746 mmHg 92%
    23:00 0°C° 0 mm 0 m/S 746 mmHg 92%

    übermorgen, 20 Dezember, Mittwoch

    Zeit Temperatur Niederschläge Wind Luftdruck Luftfeuchtigkeit
    00:00 0°C° 0 mm 0 m/S 746 mmHg 92%
    01:00 0°C° 0 mm 0 m/S 746 mmHg 92%
    02:00 0°C° 0,1 mm 0 m/S 746 mmHg 92%
    03:00 0°C° 0,1 mm 0 m/S 746 mmHg 92%
    04:00 +1°C° 0,1 mm 0 m/S 745 mmHg 92%
    05:00 +1°C° 0,2 mm 0 m/S 745 mmHg 92%
    06:00 +2°C° 0,2 mm 1 m/S 745 mmHg 92%
    07:00 +2°C° 0,2 mm 1 m/S 745 mmHg 93%
    08:00 +2°C° 0,2 mm 1 m/S 745 mmHg 92%
    09:00 +3°C° 0,2 mm 1 m/S 745 mmHg 92%
    10:00 +3°C° 0,2 mm 1 m/S 745 mmHg 91%
    11:00 +3°C° 0,2 mm 1 m/S 745 mmHg 91%
    12:00 +4°C° 0,2 mm 1 m/S 744 mmHg 91%
    13:00 +4°C° 0,2 mm 1 m/S 744 mmHg 91%
    14:00 +4°C° 0,2 mm 1 m/S 744 mmHg 92%
    15:00 +4°C° 0,2 mm 1 m/S 744 mmHg 93%
    16:00 +4°C° 0,2 mm 1 m/S 744 mmHg 94%
    17:00 +4°C° 0,2 mm 1 m/S 744 mmHg 94%
    18:00 +4°C° 0,2 mm 1 m/S 744 mmHg 94%
    19:00 +3°C° 0,2 mm 1 m/S 745 mmHg 95%
    20:00 +3°C° 0,2 mm 1 m/S 745 mmHg 95%
    21:00 +3°C° 0,2 mm 1 m/S 745 mmHg 95%
    22:00 +4°C° 0,2 mm 1 m/S 745 mmHg 95%
    23:00 +4°C° 0,1 mm 1 m/S 745 mmHg 95%

    21 Dezember, Donnerstag

    Zeit Temperatur Niederschläge Wind Luftdruck Luftfeuchtigkeit
    00:00 +4°C° 0,1 mm 1 m/S 745 mmHg 95%
    01:00 +4°C° 0,1 mm 1 m/S 745 mmHg 95%
    02:00 +4°C° 0 mm 1 m/S 745 mmHg 95%
    03:00 +4°C° 0 mm 1 m/S 745 mmHg 95%
    04:00 +4°C° 0 mm 1 m/S 745 mmHg 95%
    05:00 +4°C° 0 mm 1 m/S 745 mmHg 95%
    06:00 +4°C° 0 mm 1 m/S 745 mmHg 95%
    07:00 +4°C° 0 mm 1 m/S 746 mmHg 94%
    08:00 +4°C° 0 mm 1 m/S 746 mmHg 94%
    09:00 +4°C° 0 mm 1 m/S 746 mmHg 94%
    10:00 +5°C° 0 mm 1 m/S 746 mmHg 95%
    11:00 +6°C° 0 mm 1 m/S 746 mmHg 94%
    12:00 +6°C° 0 mm 1 m/S 746 mmHg 94%
    13:00 +7°C° 0 mm 1 m/S 746 mmHg 94%
    14:00 +7°C° 0,2 mm 1 m/S 746 mmHg 95%
    15:00 +6°C° 0,2 mm 1 m/S 745 mmHg 96%
    16:00 +6°C° 0,2 mm 1 m/S 745 mmHg 97%
    17:00 +6°C° 0,7 mm 1 m/S 746 mmHg 96%
    18:00 +6°C° 0,7 mm 1 m/S 746 mmHg 96%
    19:00 +5°C° 0,7 mm 2 m/S 746 mmHg 96%
    20:00 +5°C° 0,9 mm 2 m/S 746 mmHg 96%
    21:00 +5°C° 0,9 mm 2 m/S 746 mmHg 96%
    22:00 +5°C° 0,9 mm 2 m/S 746 mmHg 97%
    23:00 +6°C° 0,9 mm 1 m/S 746 mmHg 97%

    22 Dezember, Freitag

    Zeit Temperatur Niederschläge Wind Luftdruck Luftfeuchtigkeit
    00:00 +6°C° 0,9 mm 1 m/S 746 mmHg 97%
    01:00 +6°C° 0,9 mm 1 m/S 746 mmHg 97%
    02:00 +6°C° 0,6 mm 1 m/S 746 mmHg 97%
    03:00 +6°C° 0,6 mm 1 m/S 746 mmHg 97%
    04:00 +6°C° 0,6 mm 1 m/S 746 mmHg 97%
    05:00 +6°C° 0,2 mm 1 m/S 746 mmHg 96%
    06:00 +6°C° 0,2 mm 1 m/S 746 mmHg 96%
    07:00 +6°C° 0,2 mm 1 m/S 746 mmHg 96%
    08:00 +6°C° 0,1 mm 1 m/S 746 mmHg 96%
    09:00 +5°C° 0,1 mm 0 m/S 746 mmHg 96%
    10:00 +6°C° 0,1 mm 0 m/S 746 mmHg 96%
    11:00 +6°C° 0 mm 0 m/S 746 mmHg 95%
    12:00 +7°C° 0 mm 0 m/S 746 mmHg 94%
    13:00 +7°C° 0 mm 0 m/S 745 mmHg 93%
    14:00 +7°C° 0 mm 0 m/S 745 mmHg 94%
    15:00 +7°C° 0 mm 0 m/S 745 mmHg 95%
    16:00 +6°C° 0 mm 0 m/S 745 mmHg 96%
    17:00 +6°C° 0 mm 0 m/S 745 mmHg 96%
    18:00 +5°C° 0 mm 0 m/S 745 mmHg 95%
    19:00 +5°C° 0 mm 0 m/S 745 mmHg 95%
    20:00 +4°C° 0 mm 0 m/S 746 mmHg 95%
    21:00 +5°C° 0 mm 1 m/S 746 mmHg 95%
    22:00 +5°C° 0 mm 1 m/S 746 mmHg 95%
    23:00 +5°C° 0 mm 1 m/S 746 mmHg 95%

    23 Dezember, Samstag

    Zeit Temperatur Niederschläge Wind Luftdruck Luftfeuchtigkeit
    00:00 +5°C° 0 mm 1 m/S 746 mmHg 94%
    01:00 +5°C° 0 mm 1 m/S 746 mmHg 94%
    02:00 +5°C° 0 mm 1 m/S 746 mmHg 94%
    03:00 +5°C° 0 mm 1 m/S 746 mmHg 94%
    04:00 +5°C° 0 mm 1 m/S 746 mmHg 93%
    05:00 +4°C° 0 mm 1 m/S 746 mmHg 93%
    06:00 +4°C° 0 mm 1 m/S 746 mmHg 92%
    07:00 +3°C° 0 mm 0 m/S 746 mmHg 92%
    08:00 +4°C° 0 mm 0 m/S 746 mmHg 91%
    09:00 +4°C° 0 mm 0 m/S 746 mmHg 91%
    10:00 +4°C° 0 mm 0 m/S 747 mmHg 90%
    11:00 +5°C° 0 mm 0 m/S 746 mmHg 89%
    12:00 +6°C° 0 mm 0 m/S 746 mmHg 87%
    13:00 +7°C° 0 mm 0 m/S 746 mmHg 85%
    14:00 +6°C° 0 mm 0 m/S 745 mmHg 87%
    15:00 +6°C° 0 mm 0 m/S 745 mmHg 90%
    16:00 +6°C° 0 mm 1 m/S 745 mmHg 92%
    17:00 +5°C° 0 mm 1 m/S 745 mmHg 92%
    18:00 +4°C° 0 mm 1 m/S 745 mmHg 91%
    19:00 +3°C° 0 mm 1 m/S 745 mmHg 91%
    20:00 +3°C° 0 mm 1 m/S 745 mmHg 91%
    21:00 +3°C° 0 mm 1 m/S 745 mmHg 90%
    22:00 +3°C° 0 mm 1 m/S 745 mmHg 90%
    23:00 +3°C° 0 mm 1 m/S 745 mmHg 89%
    Mehr zeigen